Track FLOCK 3P 67 now! 10-day predictions FLOCK 3P 67 is classified as:
1 42002U 17008BG 18112.49725463 .00003358 00000-0 13968-3 0 9996 2 42002 97.4543 177.7945 0007732 194.1595 165.9426 15.24453071 65630